Location: Franklinton
(36.1018°N, 78.4581°W)
Time: 04:20:56
(UTC-05:00)

N. Korean satellite - Visible Passes

Search period start: 21 February 2019 00:00
Search period end: 03 March 2019 00:00
Orbit: 456 x 510 km, 97.2° (Epoch: 20 February)

Date Brightness Start Highest point End Pass type
(mag) Time Alt. Az. Time Alt. Az. Time Alt. Az.
21 Feb 9.9 05:32:25 10° ENE 05:34:26 15° E 05:36:27 10° SE visible
22 Feb 10.4 18:48:05 10° WSW 18:49:36 12° W 18:51:07 10° WNW visible
23 Feb 7.0 06:15:05 10° NNE 06:18:31 63° E 06:21:53 10° S visible
23 Feb 9.4 18:21:40 10° SSW 18:24:43 25° W 18:27:47 10° NW visible
24 Feb 8.9 05:50:45 10° NE 05:53:42 27° E 05:56:38 10° SSE visible
25 Feb 10.1 05:27:17 10° ENE 05:28:49 13° E 05:30:22 10° ESE visible
26 Feb 10.2 18:42:02 10° SW 18:44:00 14° W 18:45:58 10° WNW visible
27 Feb 7.5 06:09:32 10° NNE 06:12:53 52° E 06:16:14 10° S visible
28 Feb 9.3 05:45:17 10° NE 05:48:04 23° E 05:50:49 10° SSE visible
01 Mar 10.3 05:22:24 10° E 05:23:09 11° E 05:23:55 10° ESE visible
02 Mar 10.1 18:36:03 10° SW 18:38:21 16° W 18:40:39 10° NW visible
